User: anonymous   Login
Location: Eindhoven
(51.4416°N, 5.4697°E)
Time: 01:50:17
(UTC+01:00)
Language:

Explorer 7 - Orbit

View from above orbital plane
View from above orbital plane
View from above satellite
View from above satellite

Ground track
Ground track

The orbit data is extracted from the following two-line orbital elements,

1    22U 59009A   19318.47634521  .00000180  00000-0  36742-4 0  9996
2    22  50.2854  35.3093 0140106 153.7139 207.1006 14.94987256193019
Epoch (UTC): 14 November 2019 11:25:56
Eccentricity: 0.0140106
inclination: 50.2854°
perigee height: 485 km
apogee height: 680 km
right ascension of ascending node: 35.3093°
argument of perigee: 153.7139°
revolutions per day: 14.94987256
mean anomaly at epoch: 207.1006°
orbit number at epoch: 19301

The dashed part of the orbit path shows where the satellite is in the earth's shadow,  

DLR